SWR8CB EDDB-LSZH

Flight info

Callsign SWR8CB
Flight time 1h 8m
Altitude 30000
Route KISUC1N KISUC Z20 MAG Z92 ABGUS DCT LUXUX/N0442F310 DCT SWALM/N0441F300 DCT OMOGI/N0442F310 T721 RILAX
Aircraft A320/M-SDE3FGHIRWY/LB1

Departure

Time 2026-05-01 09:06
Airport Berlin Brandenburg Airport (EDDB)

Arrival

Time 2026-05-01 10:14
Airport Zürich Airport (LSZH)
Time Latitude Longitude Altitude Speed Heading
2026-05-01 08:37 52.36285 13.50660 155 ft 0 kts 69°
2026-05-01 08:55 52.36285 13.50659 155 ft 1 kts 69°
2026-05-01 08:56 52.36276 13.50621 154 ft 4 kts 69°
2026-05-01 08:56 52.36267 13.50580 154 ft 4 kts 77°
2026-05-01 08:56 52.36264 13.50537 154 ft 4 kts 102°
2026-05-01 08:56 52.36275 13.50507 154 ft 2 kts 158°
2026-05-01 08:57 52.36276 13.50506 154 ft 0 kts 159°
2026-05-01 08:59 52.36257 13.50519 154 ft 7 kts 158°
2026-05-01 08:59 52.36212 13.50548 154 ft 7 kts 159°
2026-05-01 08:59 52.36171 13.50574 154 ft 6 kts 159°
2026-05-01 08:59 52.36124 13.50603 154 ft 9 kts 159°
2026-05-01 09:00 52.36067 13.50639 154 ft 8 kts 159°
2026-05-01 09:00 52.36018 13.50669 154 ft 7 kts 159°
2026-05-01 09:00 52.35977 13.50695 154 ft 6 kts 158°
2026-05-01 09:00 52.35937 13.50721 154 ft 6 kts 158°
2026-05-01 09:01 52.35897 13.50746 154 ft 10 kts 159°
2026-05-01 09:01 52.35836 13.50798 154 ft 8 kts 127°
2026-05-01 09:01 52.35835 13.50887 154 ft 11 kts 70°
2026-05-01 09:01 52.35872 13.51038 154 ft 14 kts 69°
2026-05-01 09:02 52.35906 13.51182 154 ft 13 kts 69°
2026-05-01 09:02 52.35937 13.51310 154 ft 11 kts 69°
2026-05-01 09:02 52.35964 13.51423 154 ft 10 kts 69°
2026-05-01 09:02 52.35991 13.51537 154 ft 11 kts 69°
2026-05-01 09:03 52.36017 13.51648 154 ft 10 kts 69°
2026-05-01 09:03 52.36041 13.51747 154 ft 9 kts 69°
2026-05-01 09:03 52.36061 13.51835 154 ft 8 kts 69°
2026-05-01 09:03 52.36091 13.51963 154 ft 14 kts 69°
2026-05-01 09:04 52.36102 13.52105 155 ft 12 kts 123°
2026-05-01 09:04 52.36033 13.52162 154 ft 11 kts 158°
2026-05-01 09:04 52.35930 13.52226 154 ft 17 kts 158°
2026-05-01 09:04 52.35826 13.52236 154 ft 15 kts 225°
2026-05-01 09:05 52.35790 13.52099 154 ft 18 kts 249°
2026-05-01 09:05 52.35658 13.51534 155 ft 88 kts 249°
2026-05-01 09:05 52.35362 13.50294 155 ft 143 kts 249°
2026-05-01 09:05 52.34968 13.48593 419 ft 166 kts 249°
2026-05-01 09:06 52.34533 13.46834 1039 ft 167 kts 249°
2026-05-01 09:06 52.34035 13.45088 1654 ft 177 kts 237°
2026-05-01 09:06 52.33176 13.43462 1995 ft 201 kts 229°
2026-05-01 09:06 52.32187 13.41678 2386 ft 222 kts 229°
2026-05-01 09:07 52.31136 13.39752 2986 ft 231 kts 230°
2026-05-01 09:07 52.30060 13.37763 3818 ft 235 kts 228°
2026-05-01 09:07 52.28966 13.35734 4607 ft 240 kts 228°
2026-05-01 09:07 52.27856 13.33669 5445 ft 243 kts 228°
2026-05-01 09:08 52.26728 13.31572 6219 ft 248 kts 228°
2026-05-01 09:08 52.25579 13.29436 7013 ft 253 kts 227°
2026-05-01 09:08 52.24462 13.27178 7724 ft 258 kts 238°
2026-05-01 09:08 52.23661 13.24445 8174 ft 279 kts 248°
2026-05-01 09:09 52.22904 13.21418 8670 ft 295 kts 248°
2026-05-01 09:09 52.22126 13.18285 9423 ft 301 kts 248°
2026-05-01 09:09 52.21330 13.15095 10213 ft 306 kts 248°
2026-05-01 09:09 52.20517 13.11855 10935 ft 311 kts 248°
2026-05-01 09:10 52.19685 13.08562 11637 ft 316 kts 247°
2026-05-01 09:10 52.18838 13.05224 12340 ft 321 kts 247°
2026-05-01 09:10 52.17979 13.01839 13051 ft 326 kts 247°
2026-05-01 09:10 52.17109 12.98400 13746 ft 331 kts 247°
2026-05-01 09:11 52.16304 12.94859 14406 ft 337 kts 255°
2026-05-01 09:11 52.15743 12.91033 14590 ft 359 kts 257°
2026-05-01 09:11 52.15171 12.86951 14726 ft 380 kts 257°
2026-05-01 09:11 52.14583 12.82745 15162 ft 388 kts 257°
2026-05-01 09:12 52.13973 12.78393 15773 ft 392 kts 257°
2026-05-01 09:12 52.13359 12.74054 16413 ft 395 kts 257°
2026-05-01 09:12 52.12739 12.69681 17035 ft 398 kts 257°
2026-05-01 09:12 52.12121 12.65337 17676 ft 401 kts 258°
2026-05-01 09:13 52.11479 12.60850 18314 ft 403 kts 258°
2026-05-01 09:13 52.10838 12.56389 18916 ft 406 kts 258°
2026-05-01 09:13 52.10202 12.51965 19451 ft 409 kts 258°
2026-05-01 09:13 52.09550 12.47441 19998 ft 412 kts 257°
2026-05-01 09:14 52.08891 12.42884 20435 ft 419 kts 257°
2026-05-01 09:14 52.08209 12.38192 20555 ft 433 kts 257°
2026-05-01 09:14 52.07504 12.33358 20669 ft 445 kts 257°
2026-05-01 09:14 52.06783 12.28400 20797 ft 456 kts 257°
2026-05-01 09:15 52.06047 12.23344 20925 ft 464 kts 257°
2026-05-01 09:15 52.05292 12.18196 21051 ft 472 kts 257°
2026-05-01 09:15 52.04523 12.12985 21190 ft 477 kts 257°
2026-05-01 09:15 52.03744 12.07730 21475 ft 479 kts 257°
2026-05-01 09:16 52.02962 12.02470 21869 ft 478 kts 257°
2026-05-01 09:16 52.02181 11.97230 22296 ft 477 kts 257°
2026-05-01 09:16 52.01397 11.92006 22743 ft 476 kts 256°
2026-05-01 09:17 51.99822 11.81608 23663 ft 473 kts 256°
2026-05-01 09:17 51.99029 11.76438 24157 ft 471 kts 256°
2026-05-01 09:17 51.97330 11.66237 25012 ft 467 kts 255°
2026-05-01 09:18 51.96441 11.61184 25429 ft 466 kts 254°
2026-05-01 09:18 51.94662 11.51114 26264 ft 463 kts 255°
2026-05-01 09:19 51.92927 11.41098 27125 ft 461 kts 255°
2026-05-01 09:19 51.92069 11.36100 27489 ft 462 kts 255°
2026-05-01 09:19 51.91203 11.31055 27618 ft 468 kts 255°
2026-05-01 09:20 51.89428 11.20824 27853 ft 476 kts 255°
2026-05-01 09:20 51.87606 11.10478 28223 ft 478 kts 255°
2026-05-01 09:21 51.85783 11.00139 28764 ft 477 kts 255°
2026-05-01 09:21 51.84876 10.94987 29047 ft 476 kts 255°
2026-05-01 09:21 51.83052 10.84711 29610 ft 475 kts 254°
2026-05-01 09:22 51.81216 10.74483 30182 ft 473 kts 254°
2026-05-01 09:22 51.79383 10.64301 30443 ft 472 kts 255°
2026-05-01 09:23 51.76636 10.49125 30424 ft 472 kts 254°
2026-05-01 09:24 51.73876 10.34001 30425 ft 465 kts 254°
2026-05-01 09:25 51.70182 10.13982 30439 ft 466 kts 254°
2026-05-01 09:26 51.67398 9.98990 30429 ft 467 kts 254°
2026-05-01 09:26 51.64278 9.84159 30428 ft 467 kts 242°
2026-05-01 09:27 51.60192 9.76102 30425 ft 468 kts 219°
2026-05-01 09:27 51.57505 9.73171 30413 ft 467 kts 208°
2026-05-01 09:28 51.51500 9.69201 30425 ft 467 kts 201°
2026-05-01 09:28 51.45435 9.65453 30400 ft 467 kts 201°
2026-05-01 09:29 51.36339 9.59817 30406 ft 468 kts 201°
2026-05-01 09:30 51.27216 9.54211 30399 ft 469 kts 201°
2026-05-01 09:30 51.18074 9.48595 30396 ft 470 kts 201°
2026-05-01 09:31 51.11972 9.44872 30395 ft 470 kts 201°
2026-05-01 09:32 51.02811 9.39307 30397 ft 470 kts 201°
2026-05-01 09:32 50.93645 9.33748 30385 ft 470 kts 201°
2026-05-01 09:33 50.87536 9.30055 30385 ft 470 kts 201°
2026-05-01 09:34 50.78369 9.24525 30389 ft 470 kts 201°
2026-05-01 09:34 50.69066 9.19994 30383 ft 469 kts 187°
2026-05-01 09:35 50.59349 9.17980 30389 ft 470 kts 187°
2026-05-01 09:36 50.52827 9.16617 30391 ft 469 kts 187°
2026-05-01 09:36 50.49638 9.15953 30410 ft 455 kts 187°
2026-05-01 09:36 50.46574 9.15322 30409 ft 447 kts 187°
2026-05-01 09:37 50.40443 9.14073 30404 ft 443 kts 187°
2026-05-01 09:37 50.31276 9.12198 30404 ft 443 kts 187°
2026-05-01 09:38 50.22108 9.10327 30396 ft 443 kts 187°
2026-05-01 09:39 50.13974 9.08665 30386 ft 443 kts 187°
2026-05-01 09:39 50.07872 9.07413 30379 ft 442 kts 187°
2026-05-01 09:40 49.98715 9.05554 30379 ft 442 kts 187°
2026-05-01 09:41 49.92617 9.04333 30364 ft 442 kts 187°
2026-05-01 09:41 49.83474 9.02501 30361 ft 442 kts 187°
2026-05-01 09:42 49.77382 9.01272 30360 ft 441 kts 187°
2026-05-01 09:43 49.65209 8.98838 30361 ft 441 kts 187°
2026-05-01 09:43 49.59149 8.97322 30349 ft 441 kts 190°
2026-05-01 09:44 49.50114 8.94661 30353 ft 441 kts 190°
2026-05-01 09:45 49.44077 8.92964 30355 ft 441 kts 189°
2026-05-01 09:45 49.35013 8.90521 30350 ft 441 kts 189°
2026-05-01 09:46 49.28969 8.88892 30341 ft 441 kts 190°
2026-05-01 09:46 49.22927 8.87254 30329 ft 441 kts 190°
2026-05-01 09:47 49.16888 8.85611 30330 ft 441 kts 190°
2026-05-01 09:47 49.10844 8.83948 30307 ft 442 kts 190°
2026-05-01 09:48 49.04765 8.82285 30321 ft 444 kts 190°
2026-05-01 09:48 48.98674 8.80634 30302 ft 445 kts 189°
2026-05-01 09:49 48.92565 8.78983 30308 ft 446 kts 189°
2026-05-01 09:49 48.86453 8.77342 30310 ft 446 kts 189°
2026-05-01 09:50 48.80340 8.75705 30260 ft 447 kts 189°
2026-05-01 09:50 48.77266 8.74880 29603 ft 448 kts 189°
2026-05-01 09:50 48.74250 8.74074 28948 ft 445 kts 189°
2026-05-01 09:51 48.71213 8.73262 28302 ft 442 kts 189°
2026-05-01 09:51 48.68199 8.72458 27663 ft 439 kts 189°
2026-05-01 09:51 48.65202 8.71657 27040 ft 436 kts 189°
2026-05-01 09:51 48.62221 8.70859 26431 ft 433 kts 189°
2026-05-01 09:52 48.59266 8.70071 25832 ft 430 kts 189°
2026-05-01 09:52 48.56325 8.69289 25248 ft 427 kts 189°
2026-05-01 09:52 48.53409 8.68516 24668 ft 425 kts 189°
2026-05-01 09:52 48.50506 8.67748 24117 ft 422 kts 189°
2026-05-01 09:53 48.47649 8.66996 23493 ft 411 kts 189°
2026-05-01 09:53 48.44860 8.66260 22838 ft 403 kts 189°
2026-05-01 09:53 48.42111 8.65535 22202 ft 398 kts 189°
2026-05-01 09:53 48.39403 8.64823 21581 ft 393 kts 188°
2026-05-01 09:54 48.36726 8.64108 20973 ft 388 kts 189°
2026-05-01 09:54 48.34082 8.63342 20383 ft 388 kts 189°
2026-05-01 09:54 48.31437 8.62533 19797 ft 389 kts 190°
2026-05-01 09:54 48.28787 8.61705 19222 ft 389 kts 191°
2026-05-01 09:55 48.26135 8.60878 18660 ft 389 kts 190°
2026-05-01 09:55 48.23506 8.60068 18360 ft 380 kts 190°
2026-05-01 09:55 48.20952 8.59292 18319 ft 371 kts 190°
2026-05-01 09:55 48.18430 8.58533 18324 ft 369 kts 190°
2026-05-01 09:56 48.15914 8.57778 18330 ft 369 kts 190°
2026-05-01 09:56 48.13400 8.57027 18331 ft 368 kts 189°
2026-05-01 09:56 48.10886 8.56278 18328 ft 369 kts 189°
2026-05-01 09:56 48.08368 8.55530 18331 ft 369 kts 189°
2026-05-01 09:57 48.05845 8.54784 17937 ft 371 kts 189°
2026-05-01 09:57 48.03307 8.54035 17333 ft 372 kts 189°
2026-05-01 09:57 48.00768 8.53283 16744 ft 372 kts 189°
2026-05-01 09:57 47.98207 8.52764 16159 ft 371 kts 180°
2026-05-01 09:58 47.95677 8.52988 15586 ft 357 kts 168°
2026-05-01 09:58 47.93317 8.53909 15029 ft 346 kts 157°
2026-05-01 09:58 47.91186 8.55420 14482 ft 333 kts 147°
2026-05-01 09:58 47.89338 8.57393 13922 ft 322 kts 139°
2026-05-01 09:59 47.87634 8.59484 13317 ft 313 kts 139°
2026-05-01 09:59 47.85986 8.61486 12732 ft 306 kts 139°
2026-05-01 09:59 47.84359 8.63456 12325 ft 295 kts 139°
2026-05-01 09:59 47.82781 8.65365 12246 ft 290 kts 139°
2026-05-01 10:00 47.81208 8.67274 11820 ft 292 kts 139°
2026-05-01 10:00 47.79646 8.69168 11221 ft 288 kts 139°
2026-05-01 10:00 47.78098 8.71044 10648 ft 285 kts 139°
2026-05-01 10:00 47.76571 8.72893 10066 ft 282 kts 139°
2026-05-01 10:01 47.75057 8.74726 9432 ft 279 kts 140°
2026-05-01 10:01 47.73562 8.76532 8818 ft 275 kts 140°
2026-05-01 10:01 47.72086 8.78313 8212 ft 272 kts 140°
2026-05-01 10:01 47.70624 8.80074 7627 ft 269 kts 140°
2026-05-01 10:02 47.69179 8.81814 7037 ft 266 kts 141°
2026-05-01 10:02 47.67749 8.83535 6429 ft 263 kts 141°
2026-05-01 10:02 47.66339 8.85232 6057 ft 261 kts 141°
2026-05-01 10:02 47.64891 8.86890 5987 ft 264 kts 150°
2026-05-01 10:03 47.63144 8.87689 5993 ft 266 kts 178°
2026-05-01 10:03 47.61346 8.87150 5991 ft 267 kts 206°
2026-05-01 10:03 47.59930 8.85392 5987 ft 269 kts 234°
2026-05-01 10:03 47.59250 8.82864 5986 ft 261 kts 264°
2026-05-01 10:04 47.59463 8.80303 6005 ft 246 kts 288°
2026-05-01 10:04 47.60069 8.77955 6001 ft 243 kts 291°
2026-05-01 10:04 47.60713 8.75640 5998 ft 243 kts 292°
2026-05-01 10:04 47.61364 8.73331 6006 ft 243 kts 292°
2026-05-01 10:05 47.62010 8.71039 5993 ft 234 kts 292°
2026-05-01 10:05 47.62619 8.68889 6001 ft 219 kts 292°
2026-05-01 10:05 47.63198 8.66849 6001 ft 212 kts 292°
2026-05-01 10:05 47.63768 8.64837 6002 ft 212 kts 292°
2026-05-01 10:06 47.64328 8.62864 6041 ft 206 kts 291°
2026-05-01 10:06 47.64867 8.60985 5936 ft 194 kts 292°
2026-05-01 10:06 47.65407 8.59098 5427 ft 201 kts 291°
2026-05-01 10:06 47.65955 8.57186 4942 ft 203 kts 292°
2026-05-01 10:07 47.66500 8.55265 4456 ft 202 kts 291°
2026-05-01 10:07 47.66782 8.53257 3973 ft 199 kts 265°
2026-05-01 10:07 47.66374 8.51332 3503 ft 197 kts 239°
2026-05-01 10:07 47.65664 8.49596 3053 ft 195 kts 238°
2026-05-01 10:08 47.64355 8.46417 2999 ft 161 kts 238°
2026-05-01 10:08 47.63780 8.45022 3001 ft 155 kts 237°
2026-05-01 10:08 47.63222 8.43659 2984 ft 154 kts 237°
2026-05-01 10:09 47.62673 8.42316 2979 ft 153 kts 238°
2026-05-01 10:09 47.62122 8.40967 2988 ft 154 kts 239°
2026-05-01 10:09 47.61455 8.39761 2984 ft 150 kts 217°
2026-05-01 10:09 47.60536 8.39062 2985 ft 147 kts 192°
2026-05-01 10:10 47.59525 8.38975 2984 ft 145 kts 168°
2026-05-01 10:10 47.58595 8.39471 2980 ft 141 kts 144°
2026-05-01 10:10 47.57129 8.41384 2982 ft 139 kts 133°
2026-05-01 10:11 47.56418 8.42361 2997 ft 140 kts 134°
2026-05-01 10:11 47.55701 8.43342 2987 ft 140 kts 135°
2026-05-01 10:11 47.54988 8.44321 3004 ft 139 kts 134°
2026-05-01 10:11 47.54279 8.45294 2980 ft 139 kts 134°
2026-05-01 10:12 47.53566 8.46271 2871 ft 140 kts 134°
2026-05-01 10:12 47.53093 8.46920 2776 ft 140 kts 133°
2026-05-01 10:12 47.51421 8.49209 2332 ft 140 kts 134°
2026-05-01 10:13 47.50702 8.50194 2137 ft 142 kts 134°
2026-05-01 10:13 47.49977 8.51186 1938 ft 143 kts 134°
2026-05-01 10:13 47.49246 8.52186 1739 ft 144 kts 134°
2026-05-01 10:14 47.47773 8.54197 1400 ft 137 kts 134°
2026-05-01 10:14 47.47188 8.55002 1385 ft 90 kts 138°
2026-05-01 10:14 47.46820 8.55513 1399 ft 63 kts 136°
2026-05-01 10:14 47.46647 8.55657 1399 ft 12 kts 164°
2026-05-01 10:15 47.46577 8.55685 1398 ft 11 kts 167°
2026-05-01 10:15 47.46507 8.55707 1395 ft 9 kts 166°
2026-05-01 10:15 47.46454 8.55726 1398 ft 7 kts 166°
2026-05-01 10:15 47.46411 8.55742 1400 ft 7 kts 165°
2026-05-01 10:16 47.46371 8.55775 1406 ft 11 kts 141°
2026-05-01 10:16 47.46318 8.55846 1404 ft 8 kts 137°
2026-05-01 10:16 47.46249 8.55939 1407 ft 4 kts 137°
2026-05-01 10:17 47.46222 8.55977 1409 ft 8 kts 136°
2026-05-01 10:17 47.46155 8.55999 1406 ft 5 kts 185°
2026-05-01 10:17 47.46087 8.55989 1407 ft 10 kts 186°
2026-05-01 10:18 47.45949 8.55959 1413 ft 10 kts 197°
2026-05-01 10:18 47.45890 8.55929 1408 ft 11 kts 200°
2026-05-01 10:18 47.45820 8.55891 1411 ft 15 kts 200°
2026-05-01 10:19 47.45703 8.55866 1412 ft 15 kts 186°
2026-05-01 10:19 47.45626 8.55852 1409 ft 10 kts 186°
2026-05-01 10:19 47.45562 8.55843 1408 ft 9 kts 185°
2026-05-01 10:20 47.45478 8.55810 1409 ft 8 kts 185°
2026-05-01 10:20 47.45449 8.55807 1407 ft 0 kts 185°
2026-05-01 10:20 47.45440 8.55806 1409 ft 2 kts 185°
2026-05-01 10:20 47.45428 8.55804 1407 ft 1 kts 186°
2026-05-01 10:21 47.45425 8.55803 1407 ft 0 kts 186°